When you browse on this site, cookies collect data to enhance your experience and personalize the content and advertising you see.
Visit our Privacy Policy to learn more. By continuing to use the site, you agree to this use of cookies and data.
  • In Slovakia
  • List of Countries
  • For 7 days
  • Water Temperature
  • Satellite Maps
  • Weather Map
  • Weather Widgets
  • user-avatar
    Login

    Hourly Weather Bachledova dolina

    Today, 20 January, Sunday

    Time Temperature Precipitation Wind Pressure Humidity
    00:00 -10°C° 0 mm 1 mps 676 mmHg 76%
    01:00 -9°C° 0 mm 1 mps 676 mmHg 75%
    02:00 -9°C° 0 mm 1 mps 676 mmHg 75%
    03:00 -9°C° 0 mm 1 mps 675 mmHg 74%
    04:00 -9°C° 0 mm 0 mps 675 mmHg 74%
    05:00 -9°C° 0 mm 0 mps 675 mmHg 75%
    06:00 -9°C° 0 mm 0 mps 675 mmHg 75%
    07:00 -9°C° 0 mm 0 mps 674 mmHg 74%
    08:00 -8°C° 0 mm 0 mps 675 mmHg 74%
    09:00 -7°C° 0 mm 0 mps 675 mmHg 74%
    10:00 -6°C° 0 mm 0 mps 675 mmHg 74%
    11:00 -5°C° 0 mm 0 mps 675 mmHg 75%
    12:00 -5°C° 0 mm 0 mps 675 mmHg 76%
    13:00 -3°C° 0 mm 1 mps 675 mmHg 75%
    14:00 -4°C° 0 mm 1 mps 675 mmHg 80%
    15:00 -7°C° 0 mm 1 mps 675 mmHg 85%
    16:00 -8°C° 0 mm 1 mps 674 mmHg 90%
    17:00 -9°C° 0 mm 1 mps 674 mmHg 90%
    18:00 -10°C° 0 mm 1 mps 674 mmHg 91%
    19:00 -11°C° 0 mm 1 mps 674 mmHg 91%
    20:00 -11°C° 0 mm 1 mps 674 mmHg 89%
    21:00 -12°C° 0 mm 1 mps 675 mmHg 88%
    22:00 -12°C° 0 mm 1 mps 675 mmHg 86%
    23:00 -12°C° 0 mm 1 mps 675 mmHg 85%

    Tomorrow, 21 January, Monday

    Time Temperature Precipitation Wind Pressure Humidity
    00:00 -12°C° 0 mm 1 mps 675 mmHg 84%
    01:00 -13°C° 0 mm 1 mps 675 mmHg 83%
    02:00 -13°C° 0 mm 1 mps 676 mmHg 83%
    03:00 -13°C° 0 mm 1 mps 676 mmHg 82%
    04:00 -13°C° 0 mm 1 mps 676 mmHg 82%
    05:00 -13°C° 0 mm 1 mps 676 mmHg 82%
    06:00 -13°C° 0 mm 1 mps 676 mmHg 82%
    07:00 -13°C° 0 mm 1 mps 676 mmHg 82%
    08:00 -11°C° 0 mm 1 mps 677 mmHg 80%
    09:00 -9°C° 0 mm 1 mps 678 mmHg 78%
    10:00 -7°C° 0 mm 0 mps 679 mmHg 76%
    11:00 -6°C° 0 mm 0 mps 679 mmHg 75%
    12:00 -4°C° 0 mm 1 mps 679 mmHg 74%
    13:00 -3°C° 0 mm 1 mps 679 mmHg 73%
    14:00 -6°C° 0 mm 1 mps 678 mmHg 78%
    15:00 -7°C° 0 mm 0 mps 678 mmHg 83%
    16:00 -9°C° 0 mm 0 mps 677 mmHg 89%
    17:00 -9°C° 0 mm 0 mps 677 mmHg 89%
    18:00 -10°C° 0 mm 0 mps 677 mmHg 89%
    19:00 -11°C° 0 mm 1 mps 677 mmHg 90%
    20:00 -11°C° 0 mm 1 mps 677 mmHg 88%
    21:00 -11°C° 0 mm 1 mps 677 mmHg 87%
    22:00 -11°C° 0 mm 1 mps 676 mmHg 86%
    23:00 -11°C° 0 mm 1 mps 676 mmHg 85%

    Day after tomorrow, 22 January, Tuesday

    Time Temperature Precipitation Wind Pressure Humidity
    00:00 -11°C° 0 mm 1 mps 676 mmHg 84%
    01:00 -11°C° 0 mm 1 mps 676 mmHg 83%
    02:00 -11°C° 0 mm 1 mps 676 mmHg 82%
    03:00 -12°C° 0 mm 1 mps 675 mmHg 82%
    04:00 -12°C° 0 mm 1 mps 675 mmHg 82%
    05:00 -12°C° 0 mm 1 mps 674 mmHg 81%
    06:00 -12°C° 0 mm 1 mps 674 mmHg 81%
    07:00 -12°C° 0 mm 1 mps 674 mmHg 81%
    08:00 -10°C° 0 mm 1 mps 674 mmHg 79%
    09:00 -9°C° 0 mm 1 mps 674 mmHg 78%
    10:00 -7°C° 0 mm 1 mps 675 mmHg 76%
    11:00 -6°C° 0 mm 1 mps 674 mmHg 74%
    12:00 -4°C° 0 mm 1 mps 674 mmHg 72%
    13:00 -3°C° 0 mm 1 mps 674 mmHg 70%
    14:00 -4°C° 0 mm 1 mps 673 mmHg 76%
    15:00 -7°C° 0 mm 1 mps 672 mmHg 82%
    16:00 -8°C° 0 mm 1 mps 671 mmHg 88%
    17:00 -9°C° 0 mm 1 mps 670 mmHg 89%
    18:00 -10°C° 0 mm 1 mps 670 mmHg 91%
    19:00 -11°C° 0 mm 1 mps 669 mmHg 92%
    20:00 -11°C° 0 mm 1 mps 669 mmHg 90%
    21:00 -11°C° 0 mm 1 mps 669 mmHg 88%
    22:00 -11°C° 0 mm 1 mps 668 mmHg 86%
    23:00 -11°C° 0 mm 1 mps 668 mmHg 84%

    23 January, Wednesday

    Time Temperature Precipitation Wind Pressure Humidity
    00:00 -11°C° 0 mm 1 mps 668 mmHg 83%
    01:00 -11°C° 0 mm 1 mps 667 mmHg 82%
    02:00 -10°C° 0 mm 1 mps 667 mmHg 83%
    03:00 -9°C° 0 mm 1 mps 667 mmHg 85%
    04:00 -8°C° 0 mm 1 mps 666 mmHg 86%
    05:00 -8°C° 0.1 mm 1 mps 666 mmHg 89%
    06:00 -8°C° 0.1 mm 1 mps 666 mmHg 91%
    07:00 -7°C° 0.1 mm 1 mps 666 mmHg 93%
    08:00 -6°C° 0.1 mm 1 mps 666 mmHg 93%
    09:00 -4°C° 0.1 mm 1 mps 666 mmHg 92%
    10:00 -3°C° 0.1 mm 1 mps 666 mmHg 92%
    11:00 -2°C° 0.1 mm 1 mps 666 mmHg 92%
    12:00 -2°C° 0.1 mm 1 mps 666 mmHg 93%
    13:00 -1°C° 0.1 mm 1 mps 666 mmHg 93%
    14:00 -2°C° 0.3 mm 1 mps 666 mmHg 94%
    15:00 -2°C° 0.3 mm 1 mps 666 mmHg 95%
    16:00 -3°C° 0.3 mm 1 mps 666 mmHg 97%
    17:00 -3°C° 0.2 mm 1 mps 666 mmHg 97%
    18:00 -4°C° 0.2 mm 1 mps 666 mmHg 97%
    19:00 -4°C° 0.2 mm 1 mps 666 mmHg 97%
    20:00 -4°C° 0.2 mm 1 mps 666 mmHg 97%
    21:00 -4°C° 0.2 mm 1 mps 667 mmHg 97%
    22:00 -5°C° 0.2 mm 0 mps 667 mmHg 97%
    23:00 -5°C° 0.2 mm 0 mps 667 mmHg 97%

    24 January, Thursday

    Time Temperature Precipitation Wind Pressure Humidity
    00:00 -5°C° 0.2 mm 0 mps 667 mmHg 97%
    01:00 -5°C° 0.2 mm 0 mps 668 mmHg 97%
    02:00 -5°C° 0.3 mm 0 mps 668 mmHg 97%
    03:00 -5°C° 0.3 mm 0 mps 668 mmHg 97%
    04:00 -5°C° 0.3 mm 0 mps 668 mmHg 97%
    05:00 -5°C° 0.2 mm 0 mps 668 mmHg 96%
    06:00 -5°C° 0.2 mm 0 mps 669 mmHg 96%
    07:00 -5°C° 0.2 mm 0 mps 669 mmHg 96%
    08:00 -4°C° 0.1 mm 0 mps 669 mmHg 95%
    09:00 -3°C° 0.1 mm 0 mps 670 mmHg 94%
    10:00 -2°C° 0.1 mm 0 mps 671 mmHg 92%
    11:00 -2°C° 0 mm 0 mps 671 mmHg 93%
    12:00 -1°C° 0 mm 0 mps 671 mmHg 94%
    13:00 -1°C° 0 mm 0 mps 671 mmHg 95%
    14:00 0°C° 0.1 mm 1 mps 671 mmHg 95%
    15:00 -1°C° 0.1 mm 1 mps 671 mmHg 96%
    16:00 -1°C° 0.1 mm 1 mps 670 mmHg 96%
    17:00 -2°C° 0 mm 1 mps 670 mmHg 97%
    18:00 -3°C° 0 mm 1 mps 670 mmHg 97%
    19:00 -4°C° 0 mm 1 mps 670 mmHg 98%
    20:00 -4°C° 0 mm 1 mps 670 mmHg 97%
    21:00 -4°C° 0 mm 1 mps 671 mmHg 97%
    22:00 -4°C° 0 mm 1 mps 671 mmHg 96%
    23:00 -4°C° 0 mm 1 mps 671 mmHg 96%

    25 January, Friday

    Time Temperature Precipitation Wind Pressure Humidity
    00:00 -4°C° 0 mm 1 mps 671 mmHg 97%
    01:00 -6°C° 0 mm 1 mps 671 mmHg 97%
    02:00 -6°C° 0 mm 1 mps 671 mmHg 97%
    03:00 -4°C° 0 mm 1 mps 671 mmHg 97%
    04:00 -4°C° 0 mm 1 mps 671 mmHg 97%
    05:00 -6°C° 0 mm 1 mps 671 mmHg 96%
    06:00 -6°C° 0 mm 1 mps 671 mmHg 96%
    07:00 -7°C° 0 mm 2 mps 671 mmHg 96%
    08:00 -6°C° 0 mm 2 mps 671 mmHg 95%
    09:00 -6°C° 0 mm 2 mps 671 mmHg 94%
    10:00 -5°C° 0 mm 2 mps 672 mmHg 93%
    11:00 -5°C° 0.1 mm 2 mps 672 mmHg 93%
    12:00 -5°C° 0.1 mm 2 mps 672 mmHg 92%
    13:00 -6°C° 0.1 mm 3 mps 672 mmHg 92%
    14:00 -6°C° 0.2 mm 3 mps 672 mmHg 92%
    15:00 -7°C° 0.2 mm 3 mps 671 mmHg 93%
    16:00 -6°C° 0.2 mm 2 mps 671 mmHg 94%
    17:00 -7°C° 0.2 mm 2 mps 671 mmHg 94%
    18:00 -8°C° 0.2 mm 3 mps 671 mmHg 94%
    19:00 -9°C° 0.2 mm 3 mps 672 mmHg 94%
    20:00 -9°C° 0.2 mm 3 mps 672 mmHg 94%
    21:00 -9°C° 0.2 mm 3 mps 672 mmHg 94%
    22:00 -9°C° 0.2 mm 3 mps 672 mmHg 94%
    23:00 -9°C° 0.3 mm 3 mps 672 mmHg 94%
    Show more